Overview Statistics Trail Chart Weather Telemetry Raw packets
 

This is the latest recevied weather packets stored in our database for station/object KF7SOJ. If no packets are shown the sender has not sent any weather packets the latest 10 day(s).

<< 47 48 49 50 51 52 53 >>
Time Temp. Humidity Pressure Rain* Wind** Luminosity Snow
1788295877 24.44° C 35% 929.4 hPa 0 mm - 463 W/m² -
1788295574 23.89° C 36% 929.4 hPa 0 mm - 847 W/m² -
1788295274 23.33° C 36% 929.2 hPa 0 mm - 642 W/m² -
1788294973 23.33° C 38% 929.5 hPa 0 mm - 789 W/m² -
1788294668 23.33° C 37% 929.5 hPa 0 mm - 591 W/m² -
1788294368 23.33° C 37% 929.3 hPa 0 mm - 831 W/m² -
1788294064 22.78° C 40% 929.4 hPa 0 mm - 936 W/m² -
1788293760 21.67° C 41% 929.6 hPa 0 mm - 481 W/m² -
1788293459 21.67° C 43% 929.5 hPa 0 mm - 291 W/m² -
1788293159 21.67° C 41% 929.5 hPa 0 mm - 266 W/m² -
1788292854 21.11° C 42% 929.8 hPa 0 mm - 256 W/m² -
1788292552 21.11° C 43% 929.5 hPa 0 mm - 252 W/m² -
1788292251 21.67° C 42% 929.7 hPa 0 mm - 263 W/m² -
1788291947 21.11° C 44% 929.8 hPa 0 mm - 294 W/m² -
1788291642 21.67° C 44% 929.7 hPa 0 mm - 336 W/m² -
1788291342 21.67° C 44% 929.8 hPa 0 mm - 389 W/m² -
1788291037 21.67° C 42% 929.7 hPa 0 mm - 486 W/m² -
1788290732 21.11° C 44% 929.8 hPa 0 mm - 384 W/m² -
1788290428 21.11° C 44% 929.9 hPa 0 mm - 322 W/m² -
1788290124 21.67° C 42% 929.7 hPa 0 mm - 290 W/m² -
1788289820 22.22° C 41% 930.2 hPa 0 mm - 276 W/m² -
1788289515 21.67° C 40% 930.1 hPa 0 mm - 274 W/m² -
1788289214 21.67° C 40% 930 hPa 0 mm - 271 W/m² -
1788288913 21.11° C 40% 930.1 hPa 0 mm - 263 W/m² -
1788288612 21.11° C 41% 930.2 hPa 0 mm - 259 W/m² -

* Rain latest hour (hover to see other rain measurements)
** Current wind speed in m/s (hover to see current wind gust speed)